| time (UTC) | temp C | wind direction | speed KPH | gust KPH | rain 1hr cm | rain 24hr cm | rain mn cm | humidity % | barometer mb |
| 20260901094509 | 18 | 270 | 14.5 | 0.0 | 0.00 | 0.00 | 0.00 | 73 | 1011.3 |
| 20260901093010 | 18 | 250 | 14.5 | 0.0 | 0.00 | 0.00 | 0.00 | 73 | 1011.3 |
| 20260901091509 | 17 | 250 | 14.5 | 0.0 | 0.00 | 0.00 | 0.00 | 77 | 1011.1 |
| 20260901090009 | 17 | 270 | 17.7 | 0.0 | 0.00 | 0.00 | 0.00 | 77 | 1011.1 |
| 20260901084510 | 16 | 260 | 11.3 | 0.0 | 0.00 | 0.00 | 0.00 | 80 | 1010.8 |
| 20260901083009 | 16 | 260 | 11.3 | 0.0 | 0.00 | 0.00 | 0.00 | 80 | 1010.8 |
| 20260901081509 | 16 | 260 | 11.3 | 0.0 | 0.00 | 0.00 | 0.00 | 81 | 1010.7 |
| 20260901080009 | 16 | 240 | 12.9 | 0.0 | 0.00 | 0.00 | 0.00 | 81 | 1010.7 |
| 20260901074509 | 16 | 240 | 12.9 | 0.0 | 0.00 | 0.00 | 0.00 | 83 | 1010.4 |
| 20260901073009 | 16 | 250 | 11.3 | 0.0 | 0.00 | 0.00 | 0.00 | 83 | 1010.4 |
| 20260901071509 | 16 | 250 | 11.3 | 0.0 | 0.00 | 0.00 | 0.00 | 83 | 1010.1 |
| 20260901070010 | 16 | 250 | 14.5 | 0.0 | 0.00 | 0.00 | 0.00 | 83 | 1010.1 |
| 20260901064509 | 16 | 250 | 14.5 | 0.0 | 0.00 | 0.00 | 0.00 | 84 | 1009.8 |
| 20260901063009 | 16 | 260 | 12.9 | 0.0 | 0.00 | 0.00 | 0.00 | 84 | 1009.8 |
| 20260901061510 | 15 | 260 | 12.9 | 0.0 | 0.00 | 0.00 | 0.00 | 86 | 1009.6 |
| 20260901060010 | 15 | 250 | 11.3 | 0.0 | 0.00 | 0.00 | 0.00 | 86 | 1009.6 |
| 20260901054509 | 15 | 260 | 9.7 | 0.0 | 0.00 | 0.00 | 0.00 | 89 | 1009.2 |
| 20260901053010 | 15 | 260 | 9.7 | 0.0 | 0.00 | 0.00 | 0.00 | 89 | 1009.2 |
| 20260901051509 | 15 | 260 | 11.3 | 0.0 | 0.00 | 0.00 | 0.00 | 89 | 1008.9 |
| 20260901050010 | 15 | 260 | 11.3 | 0.0 | 0.00 | 0.00 | 0.00 | 89 | 1008.9 |
| 20260901044511 | 15 | 240 | 9.7 | 0.0 | 0.00 | 0.00 | 0.00 | 91 | 1008.6 |
| 20260901043009 | 15 | 240 | 9.7 | 0.0 | 0.00 | 0.00 | 0.00 | 91 | 1008.6 |
| 20260901041510 | 15 | 250 | 9.7 | 0.0 | 0.00 | 0.00 | 0.00 | 90 | 1008.4 |
| 20260901040010 | 15 | 250 | 9.7 | 0.0 | 0.00 | 0.00 | 0.00 | 90 | 1008.4 |
| 20260901034510 | 15 | 230 | 11.3 | 0.0 | 0.00 | 0.00 | 0.00 | 90 | 1008.3 |
| 20260901033010 | 15 | 230 | 11.3 | 0.0 | 0.00 | 0.00 | 0.00 | 90 | 1008.3 |
| 20260901031509 | 15 | 230 | 12.9 | 0.0 | 0.00 | 0.00 | 0.00 | 90 | 1008.1 |
| 20260901030008 | 15 | 230 | 12.9 | 0.0 | 0.00 | 0.00 | 0.00 | 90 | 1008.1 |
| 20260831204510 | 16 | 230 | 8.0 | 0.0 | 0.00 | 0.00 | 0.00 | 78 | 1006.6 |
| 20260831203009 | 16 | 210 | 9.7 | 0.0 | 0.00 | 0.00 | 0.00 | 78 | 1006.6 |
| 20260831201509 | 17 | 240 | 6.4 | 0.0 | 0.00 | 0.00 | 0.00 | 76 | 1006.3 |
| 20260831200009 | 17 | 240 | 6.4 | 0.0 | 0.00 | 0.00 | 0.00 | 76 | 1006.3 |
| 20260831194509 | 16 | 240 | 6.4 | 0.0 | 0.00 | 0.00 | 0.00 | 77 | 1005.8 |
| 20260831193010 | 16 | 250 | 8.0 | 0.0 | 0.00 | 0.00 | 0.00 | 77 | 1005.8 |
| 20260831191509 | 17 | 250 | 8.0 | 0.0 | 0.00 | 0.00 | 0.00 | 70 | 1006.0 |
| 20260831190010 | 17 | 250 | 17.7 | 0.0 | 0.00 | 0.00 | 0.00 | 70 | 1006.0 |
| 20260831184509 | 19 | 250 | 17.7 | 0.0 | 0.00 | 0.00 | 0.00 | 70 | 1006.0 |
| 20260831183009 | 19 | 250 | 11.3 | 0.0 | 0.00 | 0.00 | 0.00 | 70 | 1006.0 |
| 20260831181509 | 19 | 250 | 11.3 | 0.0 | 0.00 | 0.00 | 0.00 | 71 | 1005.6 |
| 20260831180009 | 19 | 270 | 12.9 | 0.0 | 0.00 | 0.00 | 0.00 | 71 | 1005.6 |
| 20260831174509 | 23 | 270 | 12.9 | 0.0 | 0.00 | 0.00 | 0.00 | 44 | 1004.6 |
| 20260831173010 | 23 | 220 | 16.1 | 0.0 | 0.00 | 0.00 | 0.00 | 44 | 1004.6 |
| 20260831171510 | 24 | 220 | 16.1 | 0.0 | 0.00 | 0.00 | 0.00 | 44 | 1004.5 |
| 20260831170009 | 24 | 220 | 17.7 | 0.0 | 0.00 | 0.00 | 0.00 | 44 | 1004.5 |
| 20260831164509 | 24 | 240 | 16.1 | 0.0 | 0.00 | 0.00 | 0.00 | 44 | 1004.5 |
| 20260831163009 | 24 | 240 | 16.1 | 0.0 | 0.00 | 0.00 | 0.00 | 44 | 1004.5 |
| 20260831161511 | 25 | 240 | 16.1 | 0.0 | 0.00 | 0.00 | 0.00 | 45 | 1004.7 |
| 20260831160010 | 25 | 230 | 19.3 | 0.0 | 0.00 | 0.00 | 0.00 | 45 | 1004.7 |
| 20260831154509 | 25 | 240 | 20.9 | 0.0 | 0.00 | 0.00 | 0.00 | 46 | 1004.6 |
| 20260831153009 | 25 | 240 | 20.9 | 0.0 | 0.00 | 0.00 | 0.00 | 46 | 1004.6 |
| 20260831151509 | 25 | 240 | 20.9 | 0.0 | 0.00 | 0.00 | 0.00 | 49 | 1004.7 |
| 20260831150010 | 25 | 230 | 17.7 | 0.0 | 0.00 | 0.00 | 0.00 | 49 | 1004.7 |
| 20260831144510 | 24 | 230 | 17.7 | 0.0 | 0.00 | 0.00 | 0.00 | 50 | 1004.8 |
| 20260831143009 | 24 | 230 | 17.7 | 0.0 | 0.00 | 0.00 | 0.00 | 50 | 1004.8 |
| 20260831141509 | 25 | 230 | 17.7 | 0.0 | 0.00 | 0.00 | 0.00 | 48 | 1005.0 |
| 20260831140009 | 25 | 230 | 20.9 | 0.0 | 0.00 | 0.00 | 0.00 | 48 | 1005.0 |
| 20260831134510 | 24 | 230 | 20.9 | 0.0 | 0.00 | 0.00 | 0.00 | 52 | 1005.1 |
| 20260831133009 | 24 | 210 | 19.3 | 0.0 | 0.00 | 0.00 | 0.00 | 52 | 1005.1 |
| 20260831131509 | 23 | 220 | 12.9 | 0.0 | 0.00 | 0.00 | 0.00 | 54 | 1005.2 |
| 20260831130009 | 23 | 220 | 12.9 | 0.0 | 0.00 | 0.00 | 0.00 | 54 | 1005.2 |
| 20260831124509 | 23 | 220 | 12.9 | 0.0 | 0.00 | 0.00 | 0.00 | 58 | 1005.4 |
| 20260831123009 | 23 | 220 | 16.1 | 0.0 | 0.00 | 0.00 | 0.00 | 58 | 1005.4 |
| 20260831121509 | 23 | 220 | 16.1 | 0.0 | 0.00 | 0.00 | 0.00 | 59 | 1005.5 |
| 20260831120009 | 23 | 210 | 16.1 | 0.0 | 0.00 | 0.00 | 0.00 | 59 | 1005.5 |
| 20260831114510 | 22 | 210 | 16.1 | 0.0 | 0.00 | 0.00 | 0.00 | 62 | 1005.6 |
| 20260831113010 | 22 | 210 | 11.3 | 0.0 | 0.00 | 0.00 | 0.00 | 62 | 1005.6 |
| 20260831111510 | 21 | 220 | 12.9 | 0.0 | 0.00 | 0.00 | 0.00 | 66 | 1005.7 |
| 20260831110009 | 21 | 220 | 12.9 | 0.0 | 0.00 | 0.00 | 0.00 | 66 | 1005.7 |
| 20260831104509 | 20 | 220 | 12.9 | 0.0 | 0.00 | 0.00 | 0.00 | 73 | 1005.9 |
| 20260831103010 | 20 | 230 | 12.9 | 0.0 | 0.00 | 0.00 | 0.00 | 73 | 1005.9 |
| 20260831101509 | 18 | 230 | 9.7 | 0.0 | 0.00 | 0.00 | 0.00 | 80 | 1006.0 |
| 20260831100009 | 18 | 230 | 9.7 | 0.0 | 0.00 | 0.00 | 0.00 | 80 | 1006.0 |